Preview of NWS' New Version of Forecast
This preview is not operational and should not be used for support decisions.

Regional Weather Roundup (RWR)

Issued by National Weather Service (NWS)

                            
000
ASUS43 KMPX 210910
RWRMN 
WEATHER ROUNDUP FOR MINNESOTA
NATIONAL WEATHER SERVICE TWIN CITIES/CHANHASSEN MN
300 AM CST MON JAN 21 2019


NOTE: "FAIR" INDICATES FEW OR NO CLOUDS BELOW 12,000 FEET WITH NO
SIGNIFICANT WEATHER AND/OR OBSTRUCTIONS TO VISIBILITY. N/A MEANS
CURRENT SKY AND/OR WEATHER CONDITIONS ARE NOT AVAILABLE.

MNZ060>063-068>070-211000-
   Twin Cities Metro   
  
CITY           SKY/WX    TMP DP  RH WIND       PRES   REMARKS
TWIN CITIES    CLOUDY     0  -6  76 SE7       30.43R WCI -13          
ST PAUL        FAIR      -1  -7  75 SE7       30.46R WCI -14          
CRYSTAL        FAIR       2  -6  69 SE7       30.41R WCI -11          
BLAINE         FAIR       1  -6  71 SE3       30.41R                  
LAKEVILLE        N/A     -9 -13  84 CALM      30.42R                  
EDEN PRAIRIE   CLOUDY    -1  -8  72 SE7       30.41R WCI -14          
SOUTH ST PAUL  FAIR      -1  -6  80 CALM      30.44R                  
LAKE ELMO        N/A      1  -6  71 CALM      30.44R                  
$$
MNZ001>005-007-008-013>017-022>024-027-028-211000-
   Northwest Minnesota   
  
CITY           SKY/WX    TMP DP  RH WIND       PRES   REMARKS
BEMIDJI        CLOUDY    -9 -15  74 SE6       30.27S WCI -23          
HALLOCK        CLOUDY     1  -8  66 S18       30.22S WCI -19          
ROSEAU         MOCLDY    -8 -15  71 S13       30.26F WCI -28          
WARROAD        FAIR     -11 -18  70 S7        30.27S WCI -26          
THIEF RVR FALL CLOUDY     0  -8  69 S16       30.25F WCI -20          
FOSSTON        CLOUDY     0  -9  65 S13       30.24F WCI -18          
DETROIT LAKES  FAIR       1  -8  66 S16       30.25S WCI -18          
MOORHEAD       MOCLDY     1  -8  66 S20G25    30.25F WCI -20          
PARK RAPIDS    CLOUDY    -6 -13  71 SE7       30.27F WCI -20          
MAHNOMEN       CLOUDY     1  -8  63 S14       30.24F WCI -17          
$$
MNZ006-009>011-018-025>026-211000-
   North Central Minnesota   
  
CITY           SKY/WX    TMP DP  RH WIND       PRES   REMARKS
BAUDETTE       FAIR     -17 -25  66 SE7       30.27F WCI -33          
FLAG ISLAND    FAIR     -17 -26  63 SE8       30.28F WCI -34          
INTL FALLS     FAIR     -24 -28  81 SE6       30.36F WCI -40          
WASKISH        FAIR     -20 -26  76 CALM      30.28F                  
LONGVILLE      FAIR     -13 -18  77 SE5       30.32S WCI -25          
GRAND RAPIDS   FAIR     -10 -14  82 SE6       30.35F WCI -23          
CRANE LAKE     CLOUDY   -24 -29  76 CALM      30.41F                  
ORR            FAIR     -11 -17  77 E3        30.32F                  
COOK           FAIR     -26 -31  75 CALM      30.35F                  
WALKER         PTSUNNY  -15 -20  78 SE7       30.30S WCI -31          
$$
MNZ012-019>021-037-211000-
   Northeast Minnesota   
  
CITY           SKY/WX    TMP DP  RH WIND       PRES   REMARKS
DULUTH         FAIR      -2  -8  76 S7        30.38R WCI -15          
ELY            CLOUDY   -17 -24  70 CALM      30.36F                  
HIBBING        FAIR     -27 -30  86 CALM      30.36F                  
EVELETH        FAIR     -17 -22  78 CALM      30.37F                  
DULUTH HARBOR  FAIR      -6  -9  84 MISG      30.49S                  
TWO HARBORS    MOCLDY     3  -2  78 S5        30.40S WCI  -6          
SILVER BAY     CLOUDY     9   3  78 S12       30.40S WCI  -6          
GRAND MARAIS     N/A      6  -1  73 NE6       30.47S WCI  -4          
G MARAIS ARPRT CLOUDY     0  -8  71 CALM      30.33S                  
$$
MNZ029>031-032-039>041-046>048-054>057-064-211000-
   West Central Minnesota   
  
CITY           SKY/WX    TMP DP  RH WIND       PRES   REMARKS
FERGUS FALLS   FAIR       1  -8  66 S17       30.29S WCI -19          
MORRIS         CLOUDY     0  -9  65 SE20      30.30F WCI -22          
ALEXANDRIA     FAIR       0 -10  63 SE15      30.29R WCI -19          
ELBOW LAKE     FAIR      -1  -8  74 E16G22    30.28F WCI -22          
WADENA         CLOUDY    -4  -9  77 SE8       30.28S WCI -19          
GLENWOOD       FAIR      -2  -8  78 SE9       30.30S WCI -18          
APPLETON       CLOUDY     3  -8  60 SE14G20   30.30F WCI -15          
BENSON         CLOUDY     0  -8  71 S10G20    30.32S WCI -17          
ORTONVILLE     PTCLDY     0  -6  78 SE18      30.24F WCI -22          
MADISON        CLOUDY     1  -4  78 SE15      30.28F WCI -18          
WILLMAR        FAIR       1  -6  71 SE13      30.35S WCI -16          
$$
MNZ033>034-036-042>043-049>051-058-059-211000-
   Central Minnesota     
  
CITY           SKY/WX    TMP DP  RH WIND       PRES   REMARKS
ST CLOUD       CLOUDY    -3  -9  75 E7        30.37S WCI -16          
SAUK CENTRE    CLOUDY    -2  -8  74 SE9       30.33R WCI -18          
PAYNESVILLE    FAIR       0  -5  78 SE7       30.35S WCI -13          
AITKIN         FAIR     -20 -27  69 CALM      30.34F                  
PINE RIVER     CLOUDY   -15 -18  84 SE5       30.34F WCI -27          
BRAINERD       FAIR     -13 -20  71 SE3       30.34S                  
STAPLES        CLOUDY    -8 -15  71 CALM      30.31S                  
LONG PRAIRIE   CLOUDY    -4  -9  77 SE6       30.32R WCI -16          
LITTLE FALLS   MOCLDY    -4  -9  77 SE7       30.36F WCI -18          
LITCHFIELD     FAIR       1  -6  71 SE6       30.36S WCI -10          
BUFFALO        MOCLDY     0  -6  76 MISG      30.40F                  
MAPLE LAKE     FAIR       1  -4  79 CALM      30.39S                  
HUTCHINSON     CLEAR      1  -6  75 SE8       30.37S WCI -14          
$$
MNZ037-044-045-052-053-211000-
   East Central Minnesota   
  
CITY           SKY/WX    TMP DP  RH WIND       PRES   REMARKS
PRINCETON      FAIR      -6  -9  84 CALM      30.39S                  
MORA           FAIR      -6  -9  84 CALM      30.42R                  
CAMBRIDGE      FAIR       0  -9  65 SE3       30.42R                  
RUSH CITY      MOCLDY    -7 -11  81 CALM      30.43R                  
MOOSE LAKE     FAIR     -18 -26  69 NE3       30.38F                  
HINCKLEY       FAIR      -6  -9  84 E5        30.41F WCI -17          
MCGREGOR       FAIR      -6  -9  84 SE6       30.36F WCI -18          
$$
MNZ071>073-080-081-089-090-097-098-211000-
   Southwest Minnesota   
  
CITY           SKY/WX    TMP DP  RH WIND       PRES   REMARKS
MONTEVIDEO     CLOUDY     1  -9  60 S16       30.31F WCI -18          
GRANITE FALLS  CLOUDY     2  -4  73 SE13G18   30.34S WCI -15          
CANBY          CLOUDY     1  -4  78 SE12      30.27S WCI -15          
MARSHALL       CLOUDY     1  -5  75 SE14      30.28F WCI -17          
REDWOOD FALLS  CLOUDY     0  -7  72 SE14      30.34F WCI -19          
OLIVIA         CLOUDY     1  -6  71 SE14      30.34F WCI -17          
PIPESTONE      CLOUDY     3   0  85 S15G21    30.18S WCI -15          
WINDOM         CLOUDY     1  -6  71 SE16      30.27F WCI -18          
WORTHINGTON    CLOUDY     2  -3  80 SE16      30.24F WCI -18          
JACKSON        CLOUDY     3  -4  72 SE14G20   30.29S WCI -15          
TRACY          CLOUDY     3  -3  76 SE12G17   30.26S WCI -14          
$$
MNZ065>067-074>077-082>085-091>093-211000-
   South Central Minnesota  
  
CITY           SKY/WX    TMP DP  RH WIND       PRES   REMARKS
MANKATO        FAIR      -2  -9  72 SE12      30.39  WCI -20          
NEW ULM        CLOUDY    -2  -9  71 SE10      30.37S WCI -19          
FAIRMONT       CLOUDY    -2  -7  79 SE9       30.36R WCI -18          
GLENCOE        FAIR       0  -6  75 SE6       30.39R WCI -12          
WASECA         FAIR       0  -8  71 SE10      30.40R WCI -17          
$$
MNZ078>079-086>088-094>096-211000-
   Southeast Minnesota   
  
CITY           SKY/WX    TMP DP  RH WIND       PRES   REMARKS
ROCHESTER      FAIR     -10 -13  86 SE7       30.38R WCI -25          
RED WING       FAIR      -8 -15  71 CALM      30.45R                  
STANTON        FAIR     -16 -21  76 CALM      30.42R                  
DODGE CENTER   FAIR      -8 -15  71 SE9       30.37S WCI -25          
AUSTIN         FAIR      -6 -17  59 CALM      30.38S                  
PRESTON        FAIR      -7 -14  71 SE6       30.40R WCI -20          
$$
ABBREVIATIONS USED IN REMARKS
   TC - TEMPERATURES IN CELSIUS
  WCI - WIND CHILL INDEX
   HX - HEAT INDEX
  VSB - VISIBILITY 
$$